TimeCST,TemperatureF,Dew PointF,Humidity,Sea Level PressureIn,VisibilityMPH,Wind Direction,Wind SpeedMPH,Gust SpeedMPH,PrecipitationIn,Events,Conditions,WindDirDegrees,DateUTC
12:53 AM,18.0,8.1,65,30.30,10.0,ESE,3.5,-,N/A,,Clear,110,2013-01-23 06:53:00
1:53 AM,18.0,7.0,62,30.29,10.0,ESE,3.5,-,N/A,,Clear,120,2013-01-23 07:53:00
2:53 AM,17.1,8.1,68,30.27,10.0,SE,4.6,-,N/A,,Clear,140,2013-01-23 08:53:00
3:53 AM,17.1,8.1,68,30.26,10.0,Calm,Calm,-,N/A,,Clear,0,2013-01-23 09:53:00
4:53 AM,15.1,8.1,74,30.25,10.0,SSE,3.5,-,N/A,,Clear,150,2013-01-23 10:53:00
5:53 AM,15.1,8.1,74,30.26,10.0,SE,3.5,-,N/A,,Clear,140,2013-01-23 11:53:00
6:53 AM,14.0,8.1,77,30.25,10.0,SSE,4.6,-,N/A,,Clear,150,2013-01-23 12:53:00
7:53 AM,15.1,9.0,77,30.26,10.0,South,3.5,-,N/A,,Clear,180,2013-01-23 13:53:00
8:53 AM,19.9,12.0,71,30.25,10.0,South,5.8,-,N/A,,Clear,180,2013-01-23 14:53:00
9:53 AM,30.0,19.0,64,30.25,10.0,SSW,5.8,-,N/A,,Clear,210,2013-01-23 15:53:00
10:53 AM,37.9,19.9,48,30.26,10.0,West,5.8,-,N/A,,Clear,260,2013-01-23 16:53:00
11:53 AM,39.9,21.0,47,30.24,9.0,West,4.6,-,N/A,,Clear,280,2013-01-23 17:53:00
12:53 PM,43.0,21.0,42,30.20,10.0,West,5.8,-,N/A,,Clear,270,2013-01-23 18:53:00
1:53 PM,46.0,21.0,37,30.20,10.0,North,11.5,-,N/A,,Clear,350,2013-01-23 19:53:00
2:53 PM,46.0,19.9,35,30.19,10.0,North,11.5,-,N/A,,Clear,10,2013-01-23 20:53:00
3:53 PM,46.9,21.0,36,30.20,10.0,North,5.8,-,N/A,,Clear,350,2013-01-23 21:53:00
4:53 PM,43.0,19.9,40,30.21,9.0,North,6.9,-,N/A,,Clear,10,2013-01-23 22:53:00
5:53 PM,39.9,19.9,45,30.26,10.0,North,5.8,-,N/A,,Clear,350,2013-01-23 23:53:00
6:53 PM,37.0,19.9,50,30.30,10.0,North,10.4,-,N/A,,Clear,360,2013-01-24 00:53:00
7:53 PM,34.0,19.0,54,30.32,10.0,North,8.1,-,N/A,,Clear,10,2013-01-24 01:53:00
8:53 PM,32.0,18.0,56,30.36,10.0,North,12.7,-,N/A,,Clear,10,2013-01-24 02:53:00
9:53 PM,30.0,16.0,56,30.38,10.0,North,13.8,-,N/A,,Clear,10,2013-01-24 03:53:00
10:53 PM,27.0,14.0,58,30.39,10.0,NNE,11.5,-,N/A,,Clear,30,2013-01-24 04:53:00
11:53 PM,26.1,12.9,58,30.42,10.0,NNE,10.4,-,N/A,,Clear,20,2013-01-24 05:53:00